Year,Month,Day,Hour,Minute,Value (Times are PST for windgust in km/hr)
2015,12,11,00,00,16.10
2015,12,11,00,01,14.50
2015,12,11,00,02,17.70
2015,12,11,00,03,16.10
2015,12,11,00,04,9.60
2015,12,11,00,05,16.10
2015,12,11,00,06,14.50
2015,12,11,00,07,11.30
2015,12,11,00,08,12.90
2015,12,11,00,09,11.30
2015,12,11,00,10,14.50
2015,12,11,00,11,14.50
2015,12,11,00,12,11.30
2015,12,11,00,13,9.60
2015,12,11,00,14,11.30
2015,12,11,00,15,14.50
2015,12,11,00,16,11.30
2015,12,11,00,17,14.50
2015,12,11,00,18,14.50
2015,12,11,00,19,12.90
2015,12,11,00,20,9.60
2015,12,11,00,21,9.60
2015,12,11,00,22,11.30
2015,12,11,00,23,9.60
2015,12,11,00,24,8.10
2015,12,11,00,25,11.30
2015,12,11,00,26,16.10
2015,12,11,00,27,14.50
2015,12,11,00,28,17.70
2015,12,11,00,29,14.50
2015,12,11,00,30,14.50
2015,12,11,00,31,9.60
2015,12,11,00,32,11.30
2015,12,11,00,33,12.90
2015,12,11,00,34,9.60
2015,12,11,00,35,9.60
2015,12,11,00,36,6.40
2015,12,11,00,37,11.30
2015,12,11,00,38,9.60
2015,12,11,00,39,11.30
2015,12,11,00,40,9.60
2015,12,11,00,41,8.10
2015,12,11,00,42,8.10
2015,12,11,00,43,6.40
2015,12,11,00,44,6.40
2015,12,11,00,45,6.40
2015,12,11,00,46,6.40
2015,12,11,00,47,4.80
2015,12,11,00,48,6.40
2015,12,11,00,49,9.60
2015,12,11,00,50,9.60
2015,12,11,00,51,11.30
2015,12,11,00,52,9.60
2015,12,11,00,53,8.10
2015,12,11,00,54,6.40
2015,12,11,00,55,8.10
2015,12,11,00,56,8.10
2015,12,11,00,57,9.60
2015,12,11,00,58,9.60
2015,12,11,00,59,14.50
2015,12,11,01,00,16.10
2015,12,11,01,01,14.50
2015,12,11,01,02,8.10
2015,12,11,01,03,8.10
2015,12,11,01,04,8.10
2015,12,11,01,05,8.10
2015,12,11,01,06,6.40
2015,12,11,01,07,8.10
2015,12,11,01,08,8.10
2015,12,11,01,09,4.80
2015,12,11,01,10,8.10
2015,12,11,01,11,4.80
2015,12,11,01,12,6.40
2015,12,11,01,13,8.10
2015,12,11,01,14,6.40
2015,12,11,01,15,6.40
2015,12,11,01,16,6.40
2015,12,11,01,17,6.40
2015,12,11,01,18,6.40
2015,12,11,01,19,6.40
2015,12,11,01,20,6.40
2015,12,11,01,21,4.80
2015,12,11,01,22,6.40
2015,12,11,01,23,8.10
2015,12,11,01,24,8.10
2015,12,11,01,25,6.40
2015,12,11,01,26,8.10
2015,12,11,01,27,6.40
2015,12,11,01,28,6.40
2015,12,11,01,29,8.10
2015,12,11,01,30,6.40
2015,12,11,01,31,8.10
2015,12,11,01,32,8.10
2015,12,11,01,33,6.40
2015,12,11,01,34,4.80
2015,12,11,01,35,6.40
2015,12,11,01,36,6.40
2015,12,11,01,37,6.40
2015,12,11,01,38,6.40
2015,12,11,01,39,8.10
2015,12,11,01,40,11.30
2015,12,11,01,41,11.30
2015,12,11,01,42,11.30
2015,12,11,01,43,8.10
2015,12,11,01,44,8.10
2015,12,11,01,45,8.10
2015,12,11,01,46,9.60
2015,12,11,01,47,12.90
2015,12,11,01,48,11.30
2015,12,11,01,49,9.60
2015,12,11,01,50,9.60
2015,12,11,01,51,12.90
2015,12,11,01,52,14.50
2015,12,11,01,53,9.60
2015,12,11,01,54,9.60
2015,12,11,01,55,9.60
2015,12,11,01,56,9.60
2015,12,11,01,57,8.10
2015,12,11,01,58,8.10
2015,12,11,01,59,8.10
2015,12,11,02,00,8.10
2015,12,11,02,01,6.40
2015,12,11,02,02,6.40
2015,12,11,02,03,6.40
2015,12,11,02,04,6.40
2015,12,11,02,05,6.40
2015,12,11,02,06,4.80
2015,12,11,02,07,6.40
2015,12,11,02,08,6.40
2015,12,11,02,09,6.40
2015,12,11,02,10,6.40
2015,12,11,02,11,8.10
2015,12,11,02,12,6.40
2015,12,11,02,13,8.10
2015,12,11,02,14,9.60
2015,12,11,02,15,8.10
2015,12,11,02,16,8.10
2015,12,11,02,17,8.10
2015,12,11,02,18,8.10
2015,12,11,02,19,8.10
2015,12,11,02,20,6.40
2015,12,11,02,21,6.40
2015,12,11,02,22,8.10
2015,12,11,02,23,8.10
2015,12,11,02,24,9.60
2015,12,11,02,25,9.60
2015,12,11,02,26,11.30
2015,12,11,02,27,12.90
2015,12,11,02,28,9.60
2015,12,11,02,29,9.60
2015,12,11,02,30,9.60
2015,12,11,02,31,9.60
2015,12,11,02,32,11.30
2015,12,11,02,33,11.30
2015,12,11,02,34,11.30
2015,12,11,02,35,9.60
2015,12,11,02,36,9.60
2015,12,11,02,37,9.60
2015,12,11,02,38,9.60
2015,12,11,02,39,8.10
2015,12,11,02,40,9.60
2015,12,11,02,41,8.10
2015,12,11,02,42,8.10
2015,12,11,02,43,8.10
2015,12,11,02,44,8.10
2015,12,11,02,45,9.60
2015,12,11,02,46,9.60
2015,12,11,02,47,8.10
2015,12,11,02,48,8.10
2015,12,11,02,49,9.60
2015,12,11,02,50,9.60
2015,12,11,02,51,9.60
2015,12,11,02,52,9.60
2015,12,11,02,53,9.60
2015,12,11,02,54,11.30
2015,12,11,02,55,8.10
2015,12,11,02,56,8.10
2015,12,11,02,57,8.10
2015,12,11,02,58,8.10
2015,12,11,02,59,8.10
2015,12,11,03,00,8.10
2015,12,11,03,01,8.10
2015,12,11,03,02,6.40
2015,12,11,03,03,6.40
2015,12,11,03,04,8.10
2015,12,11,03,05,8.10
2015,12,11,03,06,8.10
2015,12,11,03,07,8.10
2015,12,11,03,08,6.40
2015,12,11,03,09,8.10
2015,12,11,03,10,8.10
2015,12,11,03,11,6.40
2015,12,11,03,12,9.60
2015,12,11,03,13,9.60
2015,12,11,03,14,9.60
2015,12,11,03,15,9.60
2015,12,11,03,16,11.30
2015,12,11,03,17,9.60
2015,12,11,03,18,9.60
2015,12,11,03,19,11.30
2015,12,11,03,20,9.60
2015,12,11,03,21,8.10
2015,12,11,03,22,9.60
2015,12,11,03,23,9.60
2015,12,11,03,24,9.60
2015,12,11,03,25,9.60
2015,12,11,03,26,11.30
2015,12,11,03,27,14.50
2015,12,11,03,28,11.30
2015,12,11,03,29,9.60
2015,12,11,03,30,11.30
2015,12,11,03,31,9.60
2015,12,11,03,32,11.30
2015,12,11,03,33,8.10
2015,12,11,03,34,8.10
2015,12,11,03,35,8.10
2015,12,11,03,36,6.40
2015,12,11,03,37,6.40
2015,12,11,03,38,6.40
2015,12,11,03,39,6.40
2015,12,11,03,40,8.10
2015,12,11,03,41,8.10
2015,12,11,03,42,6.40
2015,12,11,03,43,6.40
2015,12,11,03,44,6.40
2015,12,11,03,45,4.80
2015,12,11,03,46,6.40
2015,12,11,03,47,6.40
2015,12,11,03,48,4.80
2015,12,11,03,49,4.80
2015,12,11,03,50,4.80
2015,12,11,03,51,3.20
2015,12,11,03,52,3.20
2015,12,11,03,53,3.20
2015,12,11,03,54,4.80
2015,12,11,03,55,4.80
2015,12,11,03,56,4.80
2015,12,11,03,57,4.80
2015,12,11,03,58,6.40
2015,12,11,03,59,4.80
2015,12,11,04,00,6.40
2015,12,11,04,01,4.80
2015,12,11,04,02,4.80
2015,12,11,04,03,4.80
2015,12,11,04,04,6.40
2015,12,11,04,05,6.40
2015,12,11,04,06,8.10
2015,12,11,04,07,6.40
2015,12,11,04,08,8.10
2015,12,11,04,09,8.10
2015,12,11,04,10,6.40
2015,12,11,04,11,6.40
2015,12,11,04,12,4.80
2015,12,11,04,13,4.80
2015,12,11,04,14,4.80
2015,12,11,04,15,4.80
2015,12,11,04,16,4.80
2015,12,11,04,17,4.80
2015,12,11,04,18,6.40
2015,12,11,04,19,6.40
2015,12,11,04,20,4.80
2015,12,11,04,21,4.80
2015,12,11,04,22,4.80
2015,12,11,04,23,6.40
2015,12,11,04,24,6.40
2015,12,11,04,25,4.80
2015,12,11,04,26,4.80
2015,12,11,04,27,4.80
2015,12,11,04,28,4.80
2015,12,11,04,29,3.20
2015,12,11,04,30,3.20
2015,12,11,04,32,3.20
2015,12,11,04,33,4.80
2015,12,11,04,34,6.40
2015,12,11,04,35,6.40
2015,12,11,04,36,4.80
2015,12,11,04,37,4.80
2015,12,11,04,38,4.80
2015,12,11,04,39,4.80
2015,12,11,04,40,4.80
2015,12,11,04,41,4.80
2015,12,11,04,42,4.80
2015,12,11,04,43,4.80
2015,12,11,04,44,6.40
2015,12,11,04,45,6.40
2015,12,11,04,46,6.40
2015,12,11,04,47,6.40
2015,12,11,04,48,6.40
2015,12,11,04,49,6.40
2015,12,11,04,50,4.80
2015,12,11,04,51,4.80
2015,12,11,04,52,3.20
2015,12,11,04,53,3.20
2015,12,11,04,54,1.60
2015,12,11,05,22,4.80
2015,12,11,05,23,4.80
2015,12,11,05,24,4.80
2015,12,11,05,25,4.80
2015,12,11,05,26,4.80
2015,12,11,05,27,4.80
2015,12,11,05,28,4.80
2015,12,11,05,29,6.40
2015,12,11,05,30,9.60
2015,12,11,05,31,11.30
2015,12,11,05,32,8.10
2015,12,11,05,33,9.60
2015,12,11,05,34,8.10
2015,12,11,05,35,8.10
2015,12,11,05,36,8.10
2015,12,11,05,37,8.10
2015,12,11,05,38,9.60
2015,12,11,05,39,8.10
2015,12,11,05,40,8.10
2015,12,11,05,41,8.10
2015,12,11,05,42,8.10
2015,12,11,05,43,8.10
2015,12,11,05,44,8.10
2015,12,11,05,45,8.10
2015,12,11,05,46,9.60
2015,12,11,05,47,8.10
2015,12,11,05,48,9.60
2015,12,11,05,49,9.60
2015,12,11,05,50,8.10
2015,12,11,05,51,9.60
2015,12,11,05,52,9.60
2015,12,11,05,53,8.10
2015,12,11,05,54,9.60
2015,12,11,05,55,9.60
2015,12,11,05,56,9.60
2015,12,11,05,57,9.60
2015,12,11,05,58,8.10
2015,12,11,05,59,11.30
2015,12,11,06,00,11.30
2015,12,11,06,01,14.50
2015,12,11,06,02,12.90
2015,12,11,06,03,11.30
2015,12,11,06,04,11.30
2015,12,11,06,05,11.30
2015,12,11,06,06,9.60
2015,12,11,06,07,9.60
2015,12,11,06,08,11.30
2015,12,11,06,09,14.50
2015,12,11,06,10,14.50
2015,12,11,06,11,12.90
2015,12,11,06,12,12.90
2015,12,11,06,13,11.30
2015,12,11,06,14,9.60
2015,12,11,06,15,9.60
2015,12,11,06,16,8.10
2015,12,11,06,17,8.10
2015,12,11,06,18,8.10
2015,12,11,06,19,8.10
2015,12,11,06,20,9.60
2015,12,11,06,21,8.10
2015,12,11,06,22,8.10
2015,12,11,06,23,8.10
2015,12,11,06,24,8.10
2015,12,11,06,25,8.10
2015,12,11,06,26,8.10
2015,12,11,06,27,8.10
2015,12,11,06,28,6.40
2015,12,11,06,29,8.10
2015,12,11,06,30,6.40
2015,12,11,06,31,8.10
2015,12,11,06,32,6.40
2015,12,11,06,33,8.10
2015,12,11,06,34,8.10
2015,12,11,06,35,6.40
2015,12,11,06,36,3.20
2015,12,11,06,37,3.20
2015,12,11,06,47,3.20
2015,12,11,06,48,3.20
2015,12,11,06,49,3.20
2015,12,11,06,50,3.20
2015,12,11,06,51,1.60
2015,12,11,07,01,6.40
2015,12,11,07,02,4.80
2015,12,11,07,03,4.80
2015,12,11,07,04,4.80
2015,12,11,07,05,4.80
2015,12,11,07,06,4.80
2015,12,11,07,07,4.80
2015,12,11,07,08,3.20
2015,12,11,07,09,3.20
2015,12,11,07,10,3.20
2015,12,11,09,07,4.80
2015,12,11,09,08,6.40
2015,12,11,09,09,6.40
2015,12,11,09,10,6.40
2015,12,11,09,11,6.40
2015,12,11,09,12,6.40
2015,12,11,09,13,6.40
2015,12,11,09,14,4.80
2015,12,11,09,15,6.40
2015,12,11,09,16,8.10
2015,12,11,09,17,4.80
2015,12,11,09,18,4.80
2015,12,11,09,19,6.40
2015,12,11,09,20,6.40
2015,12,11,09,21,6.40
2015,12,11,09,22,4.80
2015,12,11,09,23,6.40
2015,12,11,09,24,4.80
2015,12,11,09,25,4.80
2015,12,11,09,26,4.80
2015,12,11,09,27,6.40
2015,12,11,09,28,6.40
2015,12,11,09,29,6.40
2015,12,11,09,30,6.40
2015,12,11,09,31,6.40
2015,12,11,09,32,6.40
2015,12,11,09,33,4.80
2015,12,11,09,34,4.80
2015,12,11,09,35,4.80
2015,12,11,09,36,3.20
2015,12,11,09,41,3.20
2015,12,11,10,04,1.60
2015,12,11,10,05,4.80
2015,12,11,10,06,6.40
2015,12,11,10,07,6.40
2015,12,11,10,08,6.40
2015,12,11,10,09,4.80
2015,12,11,10,10,4.80
2015,12,11,10,11,6.40
2015,12,11,10,12,6.40
2015,12,11,10,13,8.10
2015,12,11,10,14,4.80
2015,12,11,10,15,6.40
2015,12,11,10,16,6.40
2015,12,11,10,17,6.40
2015,12,11,10,18,6.40
2015,12,11,10,19,6.40
2015,12,11,10,20,4.80
2015,12,11,10,21,6.40
2015,12,11,10,22,4.80
2015,12,11,10,23,4.80
2015,12,11,10,24,4.80
2015,12,11,10,25,3.20
2015,12,11,10,26,3.20
2015,12,11,10,27,3.20
2015,12,11,10,28,4.80
2015,12,11,10,29,4.80
2015,12,11,10,30,3.20
2015,12,11,10,31,3.20
2015,12,11,10,33,1.60
2015,12,11,10,53,4.80
2015,12,11,10,54,6.40
2015,12,11,10,55,4.80
2015,12,11,10,56,4.80
2015,12,11,10,57,4.80
2015,12,11,11,02,3.20
2015,12,11,11,03,1.60
2015,12,11,11,21,1.60
2015,12,11,11,22,6.40
2015,12,11,11,23,6.40
2015,12,11,11,24,6.40
2015,12,11,11,25,6.40
2015,12,11,11,26,6.40
2015,12,11,11,27,4.80
2015,12,11,11,28,4.80
2015,12,11,11,29,4.80
2015,12,11,11,30,6.40
2015,12,11,11,31,4.80
2015,12,11,11,32,4.80
2015,12,11,11,33,4.80
2015,12,11,11,34,6.40
2015,12,11,11,35,6.40
2015,12,11,11,36,6.40
2015,12,11,11,37,6.40
2015,12,11,11,38,6.40
2015,12,11,11,39,4.80
2015,12,11,11,40,4.80
2015,12,11,11,41,6.40
2015,12,11,11,42,6.40
2015,12,11,11,43,6.40
2015,12,11,11,44,6.40
2015,12,11,11,45,4.80
2015,12,11,11,46,6.40
2015,12,11,11,47,6.40
2015,12,11,11,48,6.40
2015,12,11,11,49,3.20
2015,12,11,11,50,4.80
2015,12,11,11,51,4.80
2015,12,11,11,52,4.80
2015,12,11,11,53,3.20
2015,12,11,11,54,1.60
2015,12,11,12,46,3.20
2015,12,11,12,47,3.20
2015,12,11,12,48,3.20
2015,12,11,12,49,3.20
2015,12,11,12,50,3.20
2015,12,11,12,51,4.80
2015,12,11,12,52,3.20
2015,12,11,12,53,4.80
2015,12,11,12,54,4.80
2015,12,11,12,55,3.20
2015,12,11,12,56,4.80
2015,12,11,12,57,3.20
2015,12,11,12,58,4.80
2015,12,11,12,59,4.80
2015,12,11,13,00,4.80
2015,12,11,13,01,3.20
2015,12,11,13,03,3.20
2015,12,11,13,04,4.80
2015,12,11,13,05,3.20
2015,12,11,13,06,4.80
2015,12,11,13,07,4.80
2015,12,11,13,08,3.20
2015,12,11,13,09,3.20
2015,12,11,13,10,4.80
2015,12,11,13,11,4.80
2015,12,11,13,12,3.20
2015,12,11,13,13,3.20
2015,12,11,13,14,3.20
2015,12,11,13,15,1.60
2015,12,11,13,17,3.20
2015,12,11,13,18,3.20
2015,12,11,13,19,3.20
2015,12,11,13,20,3.20
2015,12,11,13,21,4.80
2015,12,11,13,22,4.80
2015,12,11,13,23,3.20
2015,12,11,13,24,3.20
2015,12,11,13,25,3.20
2015,12,11,13,26,1.60
2015,12,11,13,40,3.20
2015,12,11,13,41,6.40
2015,12,11,13,42,8.10
2015,12,11,13,43,8.10
2015,12,11,13,44,8.10
2015,12,11,13,45,6.40
2015,12,11,13,46,6.40
2015,12,11,13,47,6.40
2015,12,11,13,48,6.40
2015,12,11,13,49,6.40
2015,12,11,13,50,8.10
2015,12,11,13,51,9.60
2015,12,11,13,52,9.60
2015,12,11,13,53,8.10
2015,12,11,13,54,9.60
2015,12,11,13,55,9.60
2015,12,11,13,56,8.10
2015,12,11,13,57,8.10
2015,12,11,13,58,8.10
2015,12,11,13,59,8.10
2015,12,11,14,00,8.10
2015,12,11,14,01,8.10
2015,12,11,14,02,6.40
2015,12,11,14,03,6.40
2015,12,11,14,04,4.80
2015,12,11,14,05,8.10
2015,12,11,14,06,8.10
2015,12,11,14,07,6.40
2015,12,11,14,08,8.10
2015,12,11,14,09,8.10
2015,12,11,14,10,8.10
2015,12,11,14,11,8.10
2015,12,11,14,12,6.40
2015,12,11,14,13,4.80
2015,12,11,14,14,4.80
2015,12,11,14,15,6.40
2015,12,11,14,16,8.10
2015,12,11,14,17,6.40
2015,12,11,14,18,6.40
2015,12,11,14,19,4.80
2015,12,11,14,20,4.80
2015,12,11,14,21,4.80
2015,12,11,14,22,6.40
2015,12,11,14,23,6.40
2015,12,11,14,24,6.40
2015,12,11,14,25,6.40
2015,12,11,14,26,6.40
2015,12,11,14,27,6.40
2015,12,11,14,28,6.40
2015,12,11,14,29,6.40
2015,12,11,14,30,6.40
2015,12,11,14,31,6.40
2015,12,11,14,32,8.10
2015,12,11,14,33,6.40
2015,12,11,14,34,9.60
2015,12,11,14,35,8.10
2015,12,11,14,36,6.40
2015,12,11,14,37,6.40
2015,12,11,14,38,4.80
2015,12,11,14,39,4.80
2015,12,11,14,40,4.80
2015,12,11,14,41,4.80
2015,12,11,14,42,3.20
2015,12,11,14,43,3.20
2015,12,11,14,44,3.20
2015,12,11,14,45,4.80
2015,12,11,14,46,4.80
2015,12,11,14,47,4.80
2015,12,11,14,48,8.10
2015,12,11,14,49,6.40
2015,12,11,14,50,6.40
2015,12,11,14,51,6.40
2015,12,11,14,52,6.40
2015,12,11,14,53,4.80
2015,12,11,14,54,6.40
2015,12,11,14,55,6.40
2015,12,11,14,56,4.80
2015,12,11,14,57,6.40
2015,12,11,14,58,4.80
2015,12,11,14,59,4.80
2015,12,11,15,00,6.40
2015,12,11,15,01,4.80
2015,12,11,15,02,6.40
2015,12,11,15,03,4.80
2015,12,11,15,04,6.40
2015,12,11,15,05,4.80
2015,12,11,15,06,4.80
2015,12,11,15,07,6.40
2015,12,11,15,08,4.80
2015,12,11,15,09,4.80
2015,12,11,15,10,4.80
2015,12,11,15,11,4.80
2015,12,11,15,12,4.80
2015,12,11,15,13,4.80
2015,12,11,15,14,8.10
2015,12,11,15,15,6.40
2015,12,11,15,16,6.40
2015,12,11,15,17,8.10
2015,12,11,15,18,6.40
2015,12,11,15,19,6.40
2015,12,11,15,20,8.10
2015,12,11,15,21,8.10
2015,12,11,15,22,4.80
2015,12,11,15,23,6.40
2015,12,11,15,24,6.40
2015,12,11,15,25,6.40
2015,12,11,15,26,6.40
2015,12,11,15,27,6.40
2015,12,11,15,28,6.40
2015,12,11,15,29,4.80
2015,12,11,15,30,8.10
2015,12,11,15,31,8.10
2015,12,11,15,32,6.40
2015,12,11,15,33,6.40
2015,12,11,15,34,8.10
2015,12,11,15,35,6.40
2015,12,11,15,36,8.10
2015,12,11,15,37,6.40
2015,12,11,15,38,6.40
2015,12,11,15,39,8.10
2015,12,11,15,40,4.80
2015,12,11,15,41,6.40
2015,12,11,15,42,4.80
2015,12,11,15,43,6.40
2015,12,11,15,44,4.80
2015,12,11,15,45,4.80
2015,12,11,15,46,6.40
2015,12,11,15,47,6.40
2015,12,11,15,48,4.80
2015,12,11,15,49,6.40
2015,12,11,15,50,6.40
2015,12,11,15,51,6.40
2015,12,11,15,52,8.10
2015,12,11,15,53,6.40
2015,12,11,15,54,8.10
2015,12,11,15,55,8.10
2015,12,11,15,56,6.40
2015,12,11,15,57,6.40
2015,12,11,15,58,6.40
2015,12,11,15,59,4.80
2015,12,11,16,00,6.40
2015,12,11,16,01,6.40
2015,12,11,16,02,6.40
2015,12,11,16,03,4.80
2015,12,11,16,04,6.40
2015,12,11,16,05,6.40
2015,12,11,16,06,4.80
2015,12,11,16,07,6.40
2015,12,11,16,08,6.40
2015,12,11,16,09,6.40
2015,12,11,16,10,6.40
2015,12,11,16,11,4.80
2015,12,11,16,12,6.40
2015,12,11,16,13,4.80
2015,12,11,16,14,4.80
2015,12,11,16,15,6.40
2015,12,11,16,16,8.10
2015,12,11,16,17,6.40
2015,12,11,16,18,4.80
2015,12,11,16,19,4.80
2015,12,11,16,20,4.80
2015,12,11,16,21,4.80
2015,12,11,16,22,4.80
2015,12,11,16,23,1.60
2015,12,11,16,24,1.60
2015,12,11,16,25,1.60
2015,12,11,16,26,3.20
2015,12,11,16,27,3.20
2015,12,11,16,28,3.20
2015,12,11,16,29,3.20
2015,12,11,16,30,3.20
2015,12,11,16,31,3.20
2015,12,11,16,32,3.20
2015,12,11,16,33,3.20
2015,12,11,16,34,4.80
2015,12,11,16,35,4.80
2015,12,11,16,36,4.80
2015,12,11,16,37,4.80
2015,12,11,16,38,4.80
2015,12,11,16,39,4.80
2015,12,11,16,40,4.80
2015,12,11,16,41,4.80
2015,12,11,16,42,4.80
2015,12,11,16,43,6.40
2015,12,11,16,44,8.10
2015,12,11,16,45,6.40
2015,12,11,16,46,6.40
2015,12,11,16,47,6.40
2015,12,11,16,48,8.10
2015,12,11,16,49,8.10
2015,12,11,16,50,6.40
2015,12,11,16,51,6.40
2015,12,11,16,52,8.10
2015,12,11,16,53,6.40
2015,12,11,16,54,4.80
2015,12,11,16,55,4.80
2015,12,11,16,56,4.80
2015,12,11,16,57,4.80
2015,12,11,16,58,6.40
2015,12,11,16,59,6.40
2015,12,11,17,00,4.80
2015,12,11,17,01,4.80
2015,12,11,17,02,4.80
2015,12,11,17,03,3.20
2015,12,11,17,04,3.20
2015,12,11,17,05,3.20
2015,12,11,17,06,4.80
2015,12,11,17,07,4.80
2015,12,11,17,08,3.20
2015,12,11,17,09,4.80
2015,12,11,17,10,4.80
2015,12,11,17,11,6.40
2015,12,11,17,12,6.40
2015,12,11,17,13,6.40
2015,12,11,17,14,4.80
2015,12,11,17,15,4.80
2015,12,11,17,16,3.20
2015,12,11,17,17,3.20
2015,12,11,17,18,3.20
2015,12,11,17,20,3.20
2015,12,11,17,21,4.80
2015,12,11,17,22,4.80
2015,12,11,17,23,4.80
2015,12,11,17,24,4.80
2015,12,11,17,25,4.80
2015,12,11,17,26,3.20
2015,12,11,17,27,1.60
2015,12,11,17,28,1.60
2015,12,11,18,57,3.20
2015,12,11,18,58,4.80
2015,12,11,18,59,4.80
2015,12,11,19,00,4.80
2015,12,11,19,01,3.20
2015,12,11,19,02,4.80
2015,12,11,19,03,4.80
2015,12,11,19,04,4.80
2015,12,11,19,05,4.80
2015,12,11,19,06,4.80
2015,12,11,19,07,4.80
2015,12,11,19,08,3.20
2015,12,11,19,09,4.80
2015,12,11,19,10,4.80
2015,12,11,19,11,4.80
2015,12,11,19,12,6.40
2015,12,11,19,13,4.80
2015,12,11,19,14,4.80
2015,12,11,19,15,4.80
2015,12,11,19,16,4.80
2015,12,11,19,17,4.80
2015,12,11,19,18,4.80
2015,12,11,19,19,4.80
2015,12,11,19,20,4.80
2015,12,11,19,21,6.40
2015,12,11,19,22,6.40
2015,12,11,19,23,6.40
2015,12,11,19,24,6.40
2015,12,11,19,25,6.40
2015,12,11,19,26,6.40
2015,12,11,19,27,6.40
2015,12,11,19,28,6.40
2015,12,11,19,29,6.40
2015,12,11,19,30,4.80
2015,12,11,19,31,4.80
2015,12,11,19,32,4.80
2015,12,11,19,33,6.40
2015,12,11,19,34,6.40
2015,12,11,19,35,4.80
2015,12,11,19,36,6.40
2015,12,11,19,37,4.80
2015,12,11,19,38,4.80
2015,12,11,19,39,4.80
2015,12,11,19,40,4.80
2015,12,11,19,41,4.80
2015,12,11,19,42,3.20
2015,12,11,19,43,4.80
2015,12,11,19,44,4.80
2015,12,11,19,45,4.80
2015,12,11,19,46,6.40
2015,12,11,19,47,6.40
2015,12,11,19,48,6.40
2015,12,11,19,49,6.40
2015,12,11,19,50,6.40
2015,12,11,19,51,4.80
2015,12,11,19,52,6.40
2015,12,11,19,53,6.40
2015,12,11,19,54,4.80
2015,12,11,19,55,4.80
2015,12,11,19,56,4.80
2015,12,11,19,57,4.80
2015,12,11,19,58,4.80
2015,12,11,19,59,4.80
2015,12,11,20,00,4.80
2015,12,11,20,01,4.80
2015,12,11,20,02,4.80
2015,12,11,20,03,4.80
2015,12,11,20,04,6.40
2015,12,11,20,05,4.80
2015,12,11,20,06,4.80
2015,12,11,20,07,4.80
2015,12,11,20,08,4.80
2015,12,11,20,09,6.40
2015,12,11,20,10,4.80
2015,12,11,20,11,6.40
2015,12,11,20,12,4.80
2015,12,11,20,13,4.80
2015,12,11,20,14,6.40
2015,12,11,20,15,6.40
2015,12,11,20,16,6.40
2015,12,11,20,17,6.40
2015,12,11,20,18,6.40
2015,12,11,20,19,6.40
2015,12,11,20,20,6.40
2015,12,11,20,21,4.80
2015,12,11,20,22,6.40
2015,12,11,20,23,6.40
2015,12,11,20,24,6.40
2015,12,11,20,25,6.40
2015,12,11,20,26,6.40
2015,12,11,20,27,8.10
2015,12,11,20,28,6.40
2015,12,11,20,29,4.80
2015,12,11,20,30,6.40
2015,12,11,20,31,6.40
2015,12,11,20,32,6.40
2015,12,11,20,33,6.40
2015,12,11,20,34,8.10
2015,12,11,20,35,9.60
2015,12,11,20,36,8.10
2015,12,11,20,37,8.10
2015,12,11,20,38,8.10
2015,12,11,20,39,6.40
2015,12,11,20,40,6.40
2015,12,11,20,41,6.40
2015,12,11,20,42,6.40
2015,12,11,20,43,8.10
2015,12,11,20,44,4.80
2015,12,11,20,45,6.40
2015,12,11,20,46,6.40
2015,12,11,20,47,4.80
2015,12,11,20,48,4.80
2015,12,11,20,49,6.40
2015,12,11,20,50,6.40
2015,12,11,20,51,6.40
2015,12,11,20,52,8.10
2015,12,11,20,53,6.40
2015,12,11,20,54,6.40
2015,12,11,20,55,6.40
2015,12,11,20,56,6.40
2015,12,11,20,57,6.40
2015,12,11,20,58,8.10
2015,12,11,20,59,6.40
2015,12,11,21,00,8.10
2015,12,11,21,01,6.40
2015,12,11,21,02,6.40
2015,12,11,21,03,6.40
2015,12,11,21,04,4.80
2015,12,11,21,05,4.80
2015,12,11,21,06,6.40
2015,12,11,21,07,6.40
2015,12,11,21,08,4.80
2015,12,11,21,09,4.80
2015,12,11,21,10,6.40
2015,12,11,21,11,4.80
2015,12,11,21,12,3.20
2015,12,11,21,13,3.20
2015,12,11,21,14,4.80
2015,12,11,21,15,6.40
2015,12,11,21,16,6.40
2015,12,11,21,17,8.10
2015,12,11,21,18,6.40
2015,12,11,21,19,8.10
2015,12,11,21,20,6.40
2015,12,11,21,21,6.40
2015,12,11,21,22,6.40
2015,12,11,21,23,8.10
2015,12,11,21,24,9.60
2015,12,11,21,25,9.60
2015,12,11,21,26,6.40
2015,12,11,21,27,6.40
2015,12,11,21,28,6.40
2015,12,11,21,29,6.40
2015,12,11,21,30,4.80
2015,12,11,21,31,6.40
2015,12,11,21,32,6.40
2015,12,11,21,33,6.40
2015,12,11,21,34,6.40
2015,12,11,21,35,4.80
2015,12,11,21,36,6.40
2015,12,11,21,37,6.40
2015,12,11,21,38,6.40
2015,12,11,21,39,6.40
2015,12,11,21,40,8.10
2015,12,11,21,41,6.40
2015,12,11,21,42,6.40
2015,12,11,21,43,8.10
2015,12,11,21,44,9.60
2015,12,11,21,45,8.10
2015,12,11,21,46,9.60
2015,12,11,21,47,9.60
2015,12,11,21,48,6.40
2015,12,11,21,49,8.10
2015,12,11,21,50,8.10
2015,12,11,21,51,8.10
2015,12,11,21,52,6.40
2015,12,11,21,53,6.40
2015,12,11,21,54,6.40
2015,12,11,21,55,6.40
2015,12,11,21,56,6.40
2015,12,11,21,57,6.40
2015,12,11,21,58,6.40
2015,12,11,21,59,6.40
2015,12,11,22,00,6.40
2015,12,11,22,01,6.40
2015,12,11,22,02,6.40
2015,12,11,22,03,6.40
2015,12,11,22,04,6.40
2015,12,11,22,05,6.40
2015,12,11,22,06,4.80
2015,12,11,22,07,6.40
2015,12,11,22,08,4.80
2015,12,11,22,09,6.40
2015,12,11,22,10,6.40
2015,12,11,22,11,6.40
2015,12,11,22,12,4.80
2015,12,11,22,13,4.80
2015,12,11,22,14,4.80
2015,12,11,22,15,4.80
2015,12,11,22,16,4.80
2015,12,11,22,17,4.80
2015,12,11,22,18,3.20
2015,12,11,22,19,4.80
2015,12,11,22,20,4.80
2015,12,11,22,21,4.80
2015,12,11,22,22,4.80
2015,12,11,22,23,4.80
2015,12,11,22,24,4.80
2015,12,11,22,25,3.20
2015,12,11,22,26,3.20
2015,12,11,22,27,4.80
2015,12,11,22,28,4.80
2015,12,11,22,29,3.20
2015,12,11,22,30,4.80
2015,12,11,22,31,4.80
2015,12,11,22,32,4.80
2015,12,11,22,33,4.80
2015,12,11,22,34,3.20
2015,12,11,22,35,3.20
2015,12,11,22,36,3.20
2015,12,11,22,37,3.20
2015,12,11,22,42,3.20
2015,12,11,22,43,3.20
2015,12,11,22,44,3.20
2015,12,11,22,45,4.80
2015,12,11,22,46,4.80
2015,12,11,22,47,4.80
2015,12,11,22,48,4.80
2015,12,11,22,49,4.80
2015,12,11,22,50,6.40
2015,12,11,22,51,6.40
2015,12,11,22,52,6.40
2015,12,11,22,53,4.80
2015,12,11,22,54,4.80
2015,12,11,22,55,3.20
2015,12,11,22,56,3.20
2015,12,11,22,58,1.60
2015,12,11,22,59,1.60
2015,12,11,23,00,3.20
2015,12,11,23,01,3.20
2015,12,11,23,02,3.20
2015,12,11,23,05,1.60
2015,12,11,23,06,4.80
2015,12,11,23,07,6.40
2015,12,11,23,08,8.10
2015,12,11,23,09,8.10
2015,12,11,23,10,8.10
2015,12,11,23,11,9.60
2015,12,11,23,12,8.10
2015,12,11,23,13,6.40
2015,12,11,23,14,6.40
2015,12,11,23,15,6.40
2015,12,11,23,16,8.10
2015,12,11,23,17,6.40
2015,12,11,23,18,4.80
2015,12,11,23,19,4.80
2015,12,11,23,20,3.20
2015,12,11,23,21,6.40
2015,12,11,23,22,4.80
2015,12,11,23,23,4.80
2015,12,11,23,24,3.20
2015,12,11,23,25,3.20
2015,12,11,23,26,4.80
2015,12,11,23,27,4.80
2015,12,11,23,28,6.40
2015,12,11,23,29,4.80
2015,12,11,23,30,4.80
2015,12,11,23,31,4.80
2015,12,11,23,32,3.20
2015,12,11,23,33,3.20
2015,12,11,23,34,1.60
2015,12,11,23,35,1.60
2015,12,11,23,36,1.60
2015,12,11,23,37,3.20
2015,12,11,23,38,3.20
2015,12,11,23,39,3.20
2015,12,11,23,40,3.20
2015,12,11,23,41,3.20
2015,12,11,23,42,3.20
2015,12,11,23,43,3.20
2015,12,11,23,44,3.20
2015,12,11,23,45,1.60
